Weather History for Glenwood, MN

Change the Weather History Date:

Thursday, May 23, 2013

  Actual Average Record
Temperature  
Mean Temperature 53 °F -  
Max Temperature 64 °F 71 °F 90 °F (1950)
Min Temperature 42 °F 47 °F 30 °F (1963)
Degree Days  
Heating Degree Days 12    
Growing Degree Days 3 (Base 50)    
Moisture  
Dew Point 38 °F    
Average Humidity 60    
Maximum Humidity 87    
Minimum Humidity 30    
Precipitation  
Precipitation 0.00 in - - ()
Sea Level Pressure  
Sea Level Pressure 30.25 in    
Wind  
Wind Speed 8 mph (ENE)    
Max Wind Speed 15 mph    
Max Gust Speed 20 mph    
Visibility 10 miles    
Events      
Averages and records for this station are not official NWS values.
T = Trace of Precipitation, MM = Missing Value Source: NWS Daily Summary

Daily Weather History Graph

Daily Weather History Graph

Search for Another Location

Airport:

Trip Planner

Search our weather history database for the weather conditions in past years. The results will help you decide how hot, cold, wet, or windy it might be!

Date:

Astronomy

May. 23, 2013 Rise Set
Actual Time 5:41 AM CDT 8:54 PM CDT
Civil Twilight 5:05 AM CDT 9:30 PM CDT
Nautical Twilight 4:19 AM CDT 10:17 PM CDT
Astronomical Twilight 3:21 AM CDT 11:15 PM CDT
Moon 7:24 PM CDT (5/23) 4:32 AM CDT (5/23)
Length of Visible Light 16h 25m
Length of Day
15h 13m
Waxing Gibbous, 97% of the Moon is Illuminated
May 23
Waxing Gibbous
May 24
Full
May 31
Last Quarter
Jun 8
New
Jun 16
First Quarter

Hourly Weather History & Observations

Time (CDT) Temp. Windchill Dew Point Humidity Pressure Visibility Wind Dir Wind Speed Gust Speed Precip Events Conditions
12:13 AM 46.4 °F 44.3 °F 41.0 °F 81% 30.07 in 10.0 mi North 4.6 mph - N/A   Clear
12:33 AM 46.4 °F 42.4 °F 41.0 °F 81% 30.08 in 10.0 mi North 8.1 mph - N/A   Clear
12:54 AM 44.6 °F 40.7 °F 41.0 °F 87% 30.09 in 10.0 mi North 6.9 mph - N/A   Clear
1:13 AM 44.6 °F 41.4 °F 41.0 °F 87% 30.09 in 10.0 mi North 5.8 mph - N/A   Clear
1:33 AM 46.4 °F 42.9 °F 39.2 °F 76% 30.10 in 10.0 mi North 6.9 mph - N/A   Clear
1:54 AM 44.6 °F 40.7 °F 41.0 °F 87% 30.11 in 10.0 mi North 6.9 mph - N/A   Clear
2:13 AM 44.6 °F 40.2 °F 41.0 °F 87% 30.12 in 10.0 mi North 8.1 mph - N/A   Clear
2:33 AM 44.6 °F 41.4 °F 39.2 °F 81% 30.12 in 10.0 mi North 5.8 mph - N/A   Scattered Clouds
2:54 AM 44.6 °F 41.4 °F 39.2 °F 81% 30.13 in 10.0 mi North 5.8 mph - N/A   Clear
3:13 AM 44.6 °F 40.7 °F 39.2 °F 81% 30.14 in 10.0 mi North 6.9 mph - N/A   Clear
3:33 AM 44.6 °F 41.4 °F 39.2 °F 81% 30.15 in 10.0 mi North 5.8 mph - N/A   Clear
3:54 AM 44.6 °F 40.2 °F 39.2 °F 81% 30.15 in 10.0 mi NE 8.1 mph - N/A   Clear
4:13 AM 44.6 °F 40.2 °F 39.2 °F 81% 30.17 in 10.0 mi NE 8.1 mph - N/A   Clear
4:33 AM 44.6 °F 40.7 °F 39.2 °F 81% 30.17 in 10.0 mi NE 6.9 mph - N/A   Clear
4:54 AM 42.8 °F 37.5 °F 39.2 °F 87% 30.18 in 10.0 mi ENE 9.2 mph - N/A   Clear
5:13 AM 42.8 °F 38.0 °F 39.2 °F 87% 30.19 in 10.0 mi ENE 8.1 mph - N/A   Clear
5:33 AM 42.8 °F 39.3 °F 37.4 °F 81% 30.20 in 10.0 mi ENE 5.8 mph - N/A   Clear
5:53 AM 42.8 °F 37.5 °F 37.4 °F 81% 30.22 in 10.0 mi ENE 9.2 mph - N/A   Scattered Clouds
6:13 AM 42.8 °F 39.3 °F 37.4 °F 81% 30.22 in 10.0 mi ENE 5.8 mph - N/A   Scattered Clouds
6:34 AM 42.8 °F 38.6 °F 37.4 °F 81% 30.23 in 10.0 mi ENE 6.9 mph - N/A   Scattered Clouds
6:53 AM 42.8 °F 39.3 °F 39.2 °F 87% 30.24 in 10.0 mi ENE 5.8 mph - N/A   Scattered Clouds
7:13 AM 44.6 °F 42.2 °F 39.2 °F 81% 30.24 in 10.0 mi NE 4.6 mph - N/A   Mostly Cloudy
7:34 AM 44.6 °F 40.2 °F 41.0 °F 87% 30.25 in 10.0 mi NE 8.1 mph - N/A   Scattered Clouds
7:53 AM 48.2 °F - 41.0 °F 76% 30.25 in 10.0 mi ENE 12.7 mph - N/A   Scattered Clouds
8:11 AM 48.2 °F - 39.2 °F 71% 30.26 in 10.0 mi ENE 15.0 mph - N/A   Scattered Clouds
8:34 AM 48.2 °F - 39.2 °F 71% 30.27 in 10.0 mi ENE 15.0 mph - N/A   Scattered Clouds
8:53 AM 48.2 °F - 39.2 °F 71% 30.28 in 10.0 mi ENE 12.7 mph - N/A   Scattered Clouds
9:13 AM 50.0 °F - 39.2 °F 66% 30.29 in 10.0 mi NE 15.0 mph 19.6 mph N/A   Clear
9:34 AM 50.0 °F - 41.0 °F 71% 30.29 in 10.0 mi ENE 11.5 mph - N/A   Clear
9:53 AM 51.8 °F - 41.0 °F 67% 30.29 in 10.0 mi ENE 12.7 mph - N/A   Clear
10:13 AM 51.8 °F - 39.2 °F 62% 30.30 in 10.0 mi ENE 13.8 mph - N/A   Clear
10:34 AM 53.6 °F - 42.8 °F 67% 30.30 in 10.0 mi NE 10.4 mph - N/A   Clear
10:53 AM 53.6 °F - 41.0 °F 62% 30.30 in 10.0 mi ENE 10.4 mph 16.1 mph N/A   Clear
11:13 AM 55.4 °F - 42.8 °F 63% 30.30 in 10.0 mi NE 12.7 mph 16.1 mph N/A   Clear
11:34 AM 55.4 °F - 41.0 °F 58% 30.30 in 10.0 mi NNE 6.9 mph - N/A   Clear
11:53 AM 55.4 °F - 41.0 °F 58% 30.30 in 10.0 mi NE 9.2 mph - N/A   Clear
12:13 PM 57.2 °F - 42.8 °F 59% 30.31 in 10.0 mi NNE 11.5 mph - N/A   Clear
12:34 PM 57.2 °F - 41.0 °F 55% 30.30 in 10.0 mi North 10.4 mph 16.1 mph N/A   Clear
12:53 PM 57.2 °F - 39.2 °F 51% 30.30 in 10.0 mi NE 6.9 mph 17.3 mph N/A   Clear
1:13 PM 59.0 °F - 39.2 °F 48% 30.30 in 10.0 mi North 10.4 mph 16.1 mph N/A   Clear
1:33 PM 60.8 °F - 39.2 °F 45% 30.30 in 10.0 mi NNE 9.2 mph - N/A   Clear
1:53 PM 60.8 °F - 37.4 °F 42% 30.30 in 10.0 mi NE 10.4 mph - N/A   Clear
2:13 PM 62.6 °F - 37.4 °F 39% 30.30 in 10.0 mi East 8.1 mph - N/A   Clear
2:33 PM 62.6 °F - 37.4 °F 39% 30.30 in 10.0 mi NE 10.4 mph 17.3 mph N/A   Clear
2:53 PM 62.6 °F - 35.6 °F 37% 30.30 in 10.0 mi ENE 9.2 mph - N/A   Clear
3:13 PM 62.6 °F - 35.6 °F 37% 30.30 in 10.0 mi ENE 5.8 mph - N/A   Clear
3:33 PM 62.6 °F - 35.6 °F 37% 30.29 in 10.0 mi NE 10.4 mph 17.3 mph N/A   Clear
3:53 PM 62.6 °F - 35.6 °F 37% 30.29 in 10.0 mi ENE 9.2 mph - N/A   Clear
4:13 PM 64.4 °F - 35.6 °F 34% 30.29 in 10.0 mi NE 4.6 mph - N/A   Clear
4:33 PM 64.4 °F - 33.8 °F 32% 30.29 in 10.0 mi ENE 10.4 mph - N/A   Clear
4:53 PM 62.6 °F - 33.8 °F 34% 30.28 in 10.0 mi ENE 10.4 mph - N/A   Clear
5:13 PM 64.4 °F - 32.0 °F 30% 30.28 in 10.0 mi East 8.1 mph - N/A   Clear
5:33 PM 64.4 °F - 33.8 °F 32% 30.28 in 10.0 mi ENE 5.8 mph - N/A   Clear
5:53 PM 62.6 °F - 32.0 °F 32% 30.28 in 10.0 mi NE 11.5 mph - N/A   Clear
6:14 PM 64.4 °F - 33.8 °F 32% 30.28 in 10.0 mi ENE 10.4 mph 16.1 mph N/A   Clear
6:33 PM 62.6 °F - 32.0 °F 32% 30.28 in 10.0 mi East 8.1 mph - N/A   Clear
6:53 PM 62.6 °F - 32.0 °F 32% 30.28 in 10.0 mi East 10.4 mph - N/A   Clear
7:14 PM 62.6 °F - 32.0 °F 32% 30.28 in 10.0 mi East 8.1 mph - N/A   Clear
7:33 PM 60.8 °F - 33.8 °F 36% 30.28 in 10.0 mi East 10.4 mph - N/A   Clear
7:53 PM 59.0 °F - 35.6 °F 42% 30.28 in 10.0 mi East 9.2 mph - N/A   Clear
8:14 PM 57.2 °F - 35.6 °F 44% 30.28 in 10.0 mi East 10.4 mph - N/A   Clear
8:33 PM 55.4 °F - 37.4 °F 51% 30.28 in 10.0 mi East 6.9 mph - N/A   Clear
8:53 PM 51.8 °F - 37.4 °F 58% 30.29 in 10.0 mi ESE 4.6 mph - N/A   Clear
9:14 PM 51.8 °F - 35.6 °F 54% 30.29 in 10.0 mi ESE 4.6 mph - N/A   Clear
9:33 PM 51.8 °F - 37.4 °F 58% 30.30 in 10.0 mi East 3.5 mph - N/A   Clear
9:53 PM 51.8 °F - 33.8 °F 50% 30.30 in 10.0 mi Calm Calm - N/A   Clear
10:13 PM 51.8 °F - 33.8 °F 50% 30.31 in 10.0 mi ESE 3.5 mph - N/A   Clear
10:33 PM 50.0 °F - 33.8 °F 54% 30.31 in 10.0 mi East 4.6 mph - N/A   Clear
10:53 PM 48.2 °F - 35.6 °F 62% 30.32 in 10.0 mi East 4.6 mph - N/A   Clear
11:13 PM 48.2 °F - 33.8 °F 58% 30.32 in 10.0 mi East 4.6 mph - N/A   Clear
11:33 PM 50.0 °F - 33.8 °F 54% 30.32 in 10.0 mi ESE 5.8 mph - N/A   Clear
11:53 PM 50.0 °F - 33.8 °F 54% 30.33 in 10.0 mi ESE 5.8 mph - N/A   Clear